Regional Weather Roundup
Issued by NWS Green Bay, WI

Home | Current Version | Previous Version | Text Only | Print | Product List | Glossary On
Versions: 1 2 3 4 5 6 7 8 9 10 11 12 13 14 15 16 17 18 19 20 21 22 23 24 25 26 27 28 29 30 31 32 33 34 35 36 37 38 39 40 41 42 43 44 45 46 47 48 49 50
000
ASUS43 KGRB 250259
RWRGRB

NORTH-CENTRAL AND NORTHEAST WISCONSIN REGIONAL WEATHER ROUNDUP
NATIONAL WEATHER SERVICE GREEN BAY WI
1000 PM CDT THU APR 24 2014

WIZ005-009-010>012-018-019-250400-
NORTH CENTRAL WISCONSIN

CITY           SKY/WX    TMP DP  RH WIND       PRES   REMARKS
IRONWOOD       NOT AVBL
MANITOWISH WTR NOT AVBL
ARBOR VITAE    NOT AVBL
EAGLE RIVER    NOT AVBL
LAND O LAKES   NOT AVBL
RHINELANDER    LGT RAIN  35  33  92 E20G25    29.70F
PHILLIPS       NOT AVBL
ANTIGO         NOT AVBL
TOMAHAWK       NOT AVBL
MERRILL        NOT AVBL
$$

WIZ013-073-250400-
NORTHEAST WISCONSIN

CITY           SKY/WX    TMP DP  RH WIND       PRES   REMARKS
IRON MOUNTAIN  LGT RAIN  36  34  92 E10       29.80F
MARINETTE      CLOUDY    37  34  87 E9        29.82F
$$

WIZ017-030-035>037-045-250400-
CENTRAL WISCONSIN

CITY           SKY/WX    TMP DP  RH WIND       PRES   REMARKS
MEDFORD        NOT AVBL
WAUSAU         LGT RAIN  38  38 100 E15       29.69F FOG
MOSINEE        LGT RAIN  39  37  93 E13       29.71F
MARSHFIELD     LGT RAIN  41  39  93 SE12      29.68S FOG
WISC RAPIDS    LGT RAIN  41  39  93 E7        29.71S FOG
STEVENS POINT  NOT AVBL
WAUPACA        NOT AVBL
SHAWANO        NOT AVBL
CLINTONVILLE   NOT AVBL
$$

WIZ038-039-048-051-250400-
FOX VALLEY

CITY           SKY/WX    TMP DP  RH WIND       PRES   REMARKS
NWS GREEN BAY  LGT RAIN  41  38  89 E12       29.78F
APPLETON       LGT RAIN  41  37  87 E9        29.74F
OSHKOSH        LGT RAIN  45  36  70 E9        29.72F
FOND DU LAC    LGT RAIN  47  34  60 SE13      29.72F
$$

WIZ022-050-052-250400-
EAST CENTRAL WISCONSIN

CITY           SKY/WX    TMP DP  RH WIND       PRES   REMARKS
STURGEON BAY   CLOUDY    39  32  75 E6        29.82F
MANITOWOC      NOT AVBL
SHEBOYGAN      CLOUDY    47  32  56 SE8       29.77R
$$

LMZ563-521-522-541>543-250400-
LAKESHORE

STATION/POSITION TIME  TEMP    WIND        PRES    VSBY  WAVE
                       AIR SEA DIR/SP/G                  HT/PER
                 (UTC) (F)     (DEG/KT/KT) (MB)    (MI)  (FT/S)
SHEBOYGAN LKSHOR 0200   44     130/ 21/ 23 1007.7F
KEWAUNEE LKSHORE 0200   39      20/  5/  9 1010.2R
NORTHPORT PIER   0200   39      70/ 17/ 20 1011.2R
SISTER BAY LKSHO 0200   42     100/ 11/ 19   N/A
MENOMINEE LKSHOR 0200   35      30/  6/ 11 1011.0F
$$



USA.gov is the U.S. government's official web portal to all federal, state and local government web resources and services.